Regional Weather Roundup
Issued by NWS

Home | Current Version | Previous Version | Text Only | Print | Product List | Glossary Off
Versions: 1 2 3 4 5 6 7 8 9 10 11 12 13 14 15 16 17 18 19 20 21 22 23 24 25 26 27

000
ASUS45 KBOU 210307
RWRCO

WEATHER ROUNDUP FOR COLORADO
NATIONAL WEATHER SERVICE DENVER/BOULDER CO
800 PM MST MON FEB 20 2017

NOTE: "FAIR" INDICATES FEW OR NO CLOUDS BELOW 12000 FEET WITH NO
SIGNIFICANT WEATHER AND/OR OBSTRUCTIONS TO VISIBILITY.

COZ001>005-013-030-031-210400-
...NORTHWEST COLORADO...

CITY           SKY/WX    TMP DP  RH WIND       PRES   REMARKS
CRAIG          FAIR      35  29  78 CALM      30.13S
HAYDEN         FAIR      37  25  60 E13       30.13F
MEEKER         FAIR      41  31  67 NW7       30.14S
MOUNT WERNER   NOT AVBL
STEAMBOAT SPGS FAIR      35  27  73 CALM      30.15R
WALDEN         NOT AVBL
$$

COZ006>008-011-210400-
...WEST CENTRAL VALLEYS...

CITY           SKY/WX    TMP DP  RH WIND       PRES   REMARKS
GRAND JUNCTION FAIR      42  38  85 CALM      30.19R
MONTROSE       FAIR      38  30  73 SE8       30.23R
EAGLE          MOCLDY    39  28  65 E7        30.20S
RIFLE          FAIR      41  34  76 CALM      30.15S
DELTA          FAIR      47  34  61 CALM      30.20R
NUCLA          FAIR      43  30  61 S6        30.29R
$$

COZ017>023-064>068-210400-
...SOUTHWEST COLORADO...

CITY           SKY/WX    TMP DP  RH WIND       PRES   REMARKS
DURANGO        FAIR      40  29  64 CALM      30.29R
CORTEZ         FAIR      36  33  89 NE5       30.29R
PAGOSA SPRINGS MOCLDY    35  26  68 CALM      30.31S
TELLURIDE      FAIR      36  20  52 CALM      30.31S
WOLF CREEK PAS CLOUDY    23  23 100 S14G20    30.42S WCI  11
$$

COZ009-010-012-014-032>034-037-058>063-210400-
...CENTRAL COLORADO...

CITY           SKY/WX    TMP DP  RH WIND       PRES   REMARKS
ASPEN          CLOUDY    36  23  59 CALM      30.19S
BUENA VISTA    FAIR      44  11  27 W12G25    30.21R
COPPER MTN     CLOUDY    32   0  25 W13G20    30.29S WCI  22
BERTHOUD PASS  FAIR      23  12  63 W23G38    30.25S WCI   7
COTTONWOOD PAS FAIR      37   7  28 W14G26    30.24S
GUNNISON       MOCLDY    30  24  78 S5        30.29R WCI  25
KREMMLING      FAIR      41  28  60 CALM      30.19F
LEADVILLE      CLOUDY    27  14  58 E5        30.23R WCI  22
MONARCH PASS   CLOUDY    25  12  58 W23       30.43R WCI  10
SALIDA         FAIR      46  11  24 SW8       30.27R
SUNLIGHT       NOT AVBL
WILKERSON PASS FAIR      28   9  43 SW18G31   30.24S WCI  16
$$

COZ069>075-210400-
...SAN LUIS VALLEY/SANGRE DE CRISTO MOUNTAINS...

CITY           SKY/WX    TMP DP  RH WIND       PRES   REMARKS
ALAMOSA        FAIR      32  24  72 W7        30.23R WCI  26
LA VETA PASS   FAIR      32  14  47 NE23G32   30.24F WCI  19
SAGUACHE       FAIR      32  21  64 NE8       30.26R WCI  25
$$

COZ035-036-038>040-210400-
...NORTHERN COLORADO FRONT RANGE...

CITY           SKY/WX    TMP DP  RH WIND       PRES   REMARKS
DENVER INTL AP FAIR      39  14  36 S13       30.00F
DMNS CITY PARK   N/A     50  12  22 E12       30.00F
AURORA         PTCLDY    43  12  28 SE12      30.02F
FRONT RANGE AP PTCLDY    39  14  35 S9        30.03F
ERIE MUNI ARPT FAIR      46  15  28 CALM      30.00S
BOULDER MUN AP FAIR      50  18  27 W5        30.00S
CENTENNIAL     FAIR      48   9  20 S15       30.02F
BROOMFIELD     PTCLDY    48  16  27 CALM      30.03S
FORT COLLINS   FAIR      49  18  29 S6        30.00R
LONGMONT       FAIR      45  16  31 W5        30.02R
$$

COZ041-046-047-076>085-087-088-210400-
...PIKES PEAK/PALMER DIVIDE AND SOUTHERN FOOTHILLS...

CITY           SKY/WX    TMP DP  RH WIND       PRES   REMARKS
COLO. SPRINGS  FAIR      44   4  19 E6        30.11S
A. F. ACADEMY  FAIR      46   4  17 S5        30.10S
SCHRIEVER AFB  FAIR      42   5  22 SE5       30.11S
ELLICOTT       FAIR     N/A N/A N/A S10       30.09F
FALCON         FAIR      39   3  22 SW5       30.13S
FORT CARSON    FAIR      44   5  20 CALM      30.08S
LIMON          FAIR      23  10  57 N5        30.07S WCI  17
MONUMENT HILL  FAIR      36   9  32 S13       30.11F
TRINIDAD       FAIR      47   9  21 VRB3      30.12R
$$

COZ042>045-048>051-090-091-210400-
...NORTHEAST COLORADO...

CITY           SKY/WX    TMP DP  RH WIND       PRES   REMARKS
GREELEY ARPT   NOT AVBL
AKRON          FAIR      43  14  31 S8        30.02S
BURLINGTON     FAIR      40  12  32 SW5       30.05R
WRAY           NOT AVBL
STERLING       NOT AVBL
HOLYOKE        FAIR      37  12  35 S7        30.00S
FORT MORGAN    FAIR      45  13  28 S3        30.01S
$$

COZ086-089-092>099-210400-
...SOUTHEAST COLORADO...

CITY           SKY/WX    TMP DP  RH WIND       PRES   REMARKS
PUEBLO         FAIR      47   8  20 E6        30.05F
LA JUNTA       FAIR      51  10  19 S7        30.07R
LAMAR          FAIR      37  11  34 SW3       30.05R
SPRINGFIELD      N/A     28  11  48 W3        30.09R
$$




USA.gov is the U.S. government's official web portal to all federal, state and local government web resources and services.